(48) Doris
ephemeris date magn radius delta ra dec elong phase
Today17 Sep 202513.33.253 AU4.107 AU13h24m-06°21'28.0°8.3°
Opposition1 Jun 202611.83.319 AU2.313 AU16h45m-13°31'171.2°2.7°
(48) Doris - 2025-09-17
astro.vanbuitenen.nl


 
-1 year
-1 month
-1 day
Now
+1 day
+1 month
+1 year

The interactive orbit chart above shows the body's path through the solar system and its position at the given date. Green and blue lines are shown perpendicular to the ecliptic plane: Green if the path is above the ecliptic plane, blue if it is below. (Left-click and drag to rotate the view; Right-click and drag to move the view; Use scroll wheel to zoom in our out.)

The orbital elements of Doris are:

            e (Eccentricity)                : 0.0664039
            a (Semimajor axis)              : 3.1122532
            i (Inclination)                 : 6.55846
            Ω (Longitude of ascending node) : 183.43070
            ω (Argument of perihelion)      : 251.21998
            M (Mean anomaly)                : 105.97925
            Epoch                           : 2025 May 05

            L (Longitude of perihelion)     : 254.53572
            B (Latitude of perihelion)      : -6.20789
            P (Orbital period in years)     : 5.49            
        

The light curve chart below shows the estimated development of the minor planet's magnitude.


The all-sky chart below shows the path of the minor planet over the same period as the light curve. The current position is marked yellow.





The following chart shows the path of the minor planet in the next few days. The field of view is optimized for (~10x50) binoculars and finderscopes. A more printer-friendly version of the same chart can be found below.




Ephemerides:
Date       Time       RA (2000)    DEC (2000)    delta   radius  elong  phase   PA    magn
2025-09-17 00:00 UT   13 24 29.4   -06 21 01     4.107    3.253   28.0    8.3   107   13.3 
2025-09-17 22:04 UT   13 25 40.7   -06 27 31     4.113    3.254   27.4    8.2   107   13.3 
2025-09-18 00:00 UT   13 25 46.9   -06 28 05     4.113    3.254   27.3    8.2   107   13.3 
2025-09-19 00:00 UT   13 27 04.7   -06 35 09     4.120    3.254   26.7    8.0   107   13.3 
2025-09-20 00:00 UT   13 28 22.6   -06 42 13     4.127    3.255   26.1    7.8   107   13.3 
2025-09-21 00:00 UT   13 29 40.7   -06 49 16     4.133    3.255   25.5    7.6   107   13.3 
2025-09-22 00:00 UT   13 30 59.1   -06 56 19     4.139    3.255   24.8    7.4   106   13.3 
2025-09-23 00:00 UT   13 32 17.6   -07 03 22     4.145    3.256   24.2    7.3   106   13.3 
2025-09-24 00:00 UT   13 33 36.3   -07 10 25     4.151    3.256   23.6    7.1   106   13.3 
2025-09-25 00:00 UT   13 34 55.2   -07 17 27     4.157    3.257   22.9    6.9   106   13.3 
2025-09-26 00:00 UT   13 36 14.3   -07 24 28     4.163    3.257   22.3    6.7   105   13.3 
2025-09-27 00:00 UT   13 37 33.5   -07 31 29     4.168    3.258   21.7    6.5   105   13.3 
2025-09-28 00:00 UT   13 38 53.0   -07 38 29     4.173    3.258   21.1    6.3   105   13.3 
2025-09-29 00:00 UT   13 40 12.6   -07 45 28     4.179    3.259   20.4    6.2   105   13.3 
2025-09-30 00:00 UT   13 41 32.3   -07 52 27     4.184    3.259   19.8    6.0   104   13.3 
2025-10-01 00:00 UT   13 42 52.2   -07 59 25     4.188    3.259   19.2    5.8   104   13.3 
2025-10-02 00:00 UT   13 44 12.3   -08 06 22     4.193    3.260   18.5    5.6   103   13.3 
2025-10-03 00:00 UT   13 45 32.6   -08 13 18     4.198    3.260   17.9    5.4   103   13.2 
2025-10-04 00:00 UT   13 46 53.0   -08 20 14     4.202    3.261   17.3    5.2   103   13.2 
2025-10-05 00:00 UT   13 48 13.5   -08 27 08     4.207    3.261   16.7    5.0   102   13.2 
2025-10-06 00:00 UT   13 49 34.2   -08 34 01     4.211    3.262   16.1    4.9   102   13.2 
2025-10-07 00:00 UT   13 50 55.1   -08 40 53     4.215    3.262   15.4    4.7   101   13.2 
2025-10-08 00:00 UT   13 52 16.1   -08 47 44     4.218    3.262   14.8    4.5   101   13.2 
2025-10-09 00:00 UT   13 53 37.2   -08 54 34     4.222    3.263   14.2    4.3   100   13.2 
2025-10-10 00:00 UT   13 54 58.5   -09 01 23     4.226    3.263   13.6    4.1   100   13.2 
2025-10-11 00:00 UT   13 56 19.9   -09 08 11     4.229    3.264   12.9    3.9    99   13.2 


    Terminology:
            
    delta:  distance between minor planet and earth in AU
    radius: distance between minor planet and sun in AU
    magn:   magnitude (brightness) estimate    
    ra:     right ascension in hours (24h = 360deg)
    dec:    declination in degrees
    elong:  elongation in degrees (angle sun-earth-minor planet)    
    phase:  phase angle in degrees (angle sun-minor planet-earth)        
    AU:     Astronomical Unit (mean distance between earth and sun: 149597870.7 km
    

Orbital elements provided by the MPC (Minor Planet Center).
Calculations by a modified version of AAPlus, a C# implementation of the AA+ project by PJ Naughter from the algorithms presented in the book "Astronomical Algorithms" by Jean Meeus.
NGC2000 dso catalog and star labels from VizieR as provided by the Strasbourg astronomical Data Center.
Tycho2 catalog from the ESO archive.